Location: B?ogocice
(50.2413°N, 20.2361°E)
Time: 23:10:15
(UTC+00:00)

H-2A R/B - Pass Details

Date: 15 June 2024
Orbit: 565 x 637 km, 98.4° (Epoch: 18 July)

Event Time Altitude Azimuth Distance (km) Brightness Sun altitude
Rises 00:13:11 0° 2° (N) 2,902 7.0 -13.6°
Reaches altitude 10° 00:15:58 10° 344° (NNW) 1,977 5.4 -13.4°
Maximum altitude 00:18:48 18° 302° (WNW) 1,523 4.2 -13.2°
Drops below altitude 10° 00:21:35 10° 260° (W) 1,937 4.3 -13.0°
Enters shadow 00:22:11 - 255° (WSW) 2,109 4.4 -13.0°
